Grazzanise, Italy

6:43 PM CEST on June 25, 2017 (GMT +0200)
Grazzanise Mil

Weather History for LIRM - September, 2013

Change the Weather History Date:

Wednesday, September 4, 2013

  Actual Average (LIRN) Record (LIRN)
Temperature  
Mean Temperature 76 °F -  
Max Temperature 93 °F 79 °F 93 °F (2011)
Min Temperature 59 °F 58 °F 62 °F (1999)
Cooling Degree Days 11    
Growing Degree Days 26 (Base 50)    
Moisture  
Dew Point 60 °F    
Average Humidity 67    
Maximum Humidity 100    
Minimum Humidity 17    
Precipitation  
Precipitation 0.00 in 0.11 in - ()
Sea Level Pressure  
Sea Level Pressure 30.14 in    
Wind  
Wind Speed 6 mph ()    
Max Wind Speed 15 mph    
Max Gust Speed -    
Visibility 8.5 miles    
Events      
Averages and records for this station are not official NWS values.
T = Trace of Precipitation, MM = Missing Value Source: Averaged Metar Reports

Daily Weather History Graph

Daily Weather History Graph

Search for Another Location

Airport or City:

Trip Planner

Search our weather history database for the weather conditions in past years. The results will help you decide how hot, cold, wet, or windy it might be!

Date:

Astronomy

Sep. 04, 2013 Rise Set
Actual Time 6:33 AM CEST 7:31 PM CEST
Civil Twilight 6:05 AM CEST 7:59 PM CEST
Nautical Twilight 5:31 AM CEST 8:32 PM CEST
Astronomical Twilight 4:56 AM CEST 9:07 PM CEST
Moon 5:28 AM CEST (9/4) 6:41 PM CEST (9/4)
Length of Visible Light 13h 54m
Length of Day
12h 58m
Waning Crescent, 1% of the Moon is Illuminated
Sep 4
Waning Crescent
Sep 5
New
Sep 12
First Quarter
Sep 19
Full
Sep 27
Last Quarter

Hourly Weather History & Observations

Time (CEST) Temp. Heat Index Dew Point Humidity Pressure Visibility Wind Dir Wind Speed Gust Speed Precip Events Conditions
12:55 AM 64.4 °F - 60.8 °F 88% 30.18 in - North 4.6 mph - N/A   Clear
1:55 AM 64.4 °F - 60.8 °F 88% 30.18 in - ESE 3.5 mph - N/A   Clear
2:00 AM 64 °F - 60 °F 84% 30.19 in 12 mi ESE 3.5 mph - -  
2:55 AM 62.6 °F - 59.0 °F 88% 30.18 in - East 3.5 mph - N/A   Clear
3:55 AM 60.8 °F - 55.4 °F 82% 30.18 in - ENE 2.3 mph - N/A   Clear
4:55 AM 59.0 °F - 59.0 °F 100% 30.18 in - North 6.9 mph - N/A   Clear
5:00 AM 59 °F - 58 °F 97% 30.19 in 19 mi North 6.9 mph - -  
5:55 AM 59.0 °F - 57.2 °F 94% 30.18 in - North 6.9 mph - N/A   Clear
6:55 AM 59.0 °F - 57.2 °F 94% 30.15 in - NNE 2.3 mph - N/A   Clear
7:55 AM 62.6 °F - 59.0 °F 88% 30.18 in - NE 5.8 mph - N/A   Clear
8:00 AM 63 °F - 60 °F 85% 30.19 in 25 mi NE 5.8 mph - -  
8:55 AM 75.2 °F - 60.8 °F 61% 30.18 in - NE 6.9 mph - N/A   Clear
9:55 AM 78.8 °F - 53.6 °F 42% 30.18 in - NE 12.7 mph - N/A   Clear
10:55 AM 86.0 °F - 51.8 °F 31% 30.15 in - ENE 13.8 mph - N/A   Clear
11:00 AM 86 °F - 53 °F 22% 30.17 in 34 mi ENE 13.8 mph - -  
11:55 AM 87.8 °F 86.1 °F 55.4 °F 33% 30.15 in - ENE 11.5 mph - N/A   Clear
12:55 PM 89.6 °F - 50.0 °F 26% 30.15 in - East 13.8 mph - N/A   Clear
1:55 PM 91.4 °F - 51.8 °F 26% 30.15 in - ENE 12.7 mph - N/A   Clear
2:00 PM 91 °F - 52 °F 17% 30.15 in 37 mi ENE 12.7 mph - -  
2:55 PM 93.2 °F - 50.0 °F 23% 30.12 in - East 13.8 mph - N/A   Clear
3:55 PM 91.4 °F - 50.0 °F 24% 30.09 in 6.2 mi East 15.0 mph - N/A   Partly Cloudy
4:55 PM 86.0 °F 90.4 °F 69.8 °F 58% 30.09 in 6.2 mi West 10.4 mph - N/A   Partly Cloudy
5:00 PM 86 °F - 70 °F 49% 30.10 in 37 mi West 10.4 mph - -   Scattered Clouds
5:55 PM 82.4 °F 84.6 °F 66.2 °F 58% 30.09 in 6.2 mi West 6.9 mph - N/A   Partly Cloudy
6:55 PM 78.8 °F - 66.2 °F 65% 30.09 in 6.2 mi West 4.6 mph - N/A   Partly Cloudy
7:06 PM 78.8 °F - 68.0 °F 69% 30.09 in 6.2 mi WSW 5.8 mph - N/A   Smoke
7:55 PM 75.2 °F - 69.8 °F 83% 30.09 in 6.2 mi WSW 3.5 mph - N/A   Smoke
8:00 PM 76 °F - 69 °F 73% 30.11 in 1 mi WSW 3.5 mph - -  
8:55 PM 71.6 °F - 69.8 °F 94% 30.09 in - South 3.5 mph - N/A   Clear
9:55 PM 71.6 °F - 68.0 °F 88% 30.09 in - SE 2.3 mph - N/A   Clear
10:55 PM 66.2 °F - 66.2 °F 100% 30.09 in - NNW 3.5 mph - N/A   Clear
11:00 PM 67 °F - 65 °F 93% 30.11 in 16 mi NNW 3.5 mph - -  
11:55 PM 64.4 °F - 62.6 °F 94% 30.09 in - West 2.3 mph - N/A   Clear